Zurück zum Katalog

STARLINK-34232

AktivKommunikationVLEO
NORAD 65019·PAYLOAD·🇺🇸 United States

Gestartet Jul 30, 2025 von Cape Canaveral Space Force Station

Loading…

Nächste Überflüge (nächste 24 Stunden)

TLE

AktuellSource: CelesTrak SupGP

Epoche: Sep 15, 2026, 02:24 UTC

1 65019C 25161E   26258.10048611  .00063670  00000+0  18827-2 0  2587
2 65019  53.1569 133.0915 0001260  83.2986  78.4922 15.34331836    19

Verfolge STARLINK-34232 in Echtzeit mit AllMySat

Download on the App Store